DLH117P EDLP-EDDN

Flight info

Callsign DLH117P
Flight time 0h 41m
Altitude 23000
Route GISDI1X GISDI DCT RANIN DCT TIKNI DCT KOMIB T193 ERTES T194 DODAS DODAS1V
Aircraft A319/M-SDE3FGHIRWY/LB1

Departure

Time 2026-05-05 17:51
Airport Paderborn Lippstadt Airport (EDLP)

Arrival

Time 2026-05-05 18:33
Airport Nuremberg Airport (EDDN)
Time Latitude Longitude Altitude Speed Heading
2026-05-05 17:08 51.61144 8.62006 731 ft 0 kts 147°
2026-05-05 17:40 51.61152 8.61998 731 ft 4 kts 146°
2026-05-05 17:40 51.61175 8.61974 729 ft 4 kts 154°
2026-05-05 17:40 51.61196 8.61965 730 ft 4 kts 213°
2026-05-05 17:41 51.61201 8.61970 730 ft 0 kts 236°
2026-05-05 17:44 51.61191 8.61946 730 ft 6 kts 237°
2026-05-05 17:44 51.61161 8.61871 730 ft 9 kts 237°
2026-05-05 17:44 51.61130 8.61796 731 ft 7 kts 236°
2026-05-05 17:44 51.61107 8.61741 731 ft 5 kts 236°
2026-05-05 17:45 51.61093 8.61706 731 ft 3 kts 236°
2026-05-05 17:45 51.61086 8.61691 731 ft 1 kts 236°
2026-05-05 17:45 51.61084 8.61685 731 ft 3 kts 237°
2026-05-05 17:45 51.61043 8.61582 731 ft 15 kts 237°
2026-05-05 17:46 51.60979 8.61424 731 ft 17 kts 237°
2026-05-05 17:46 51.60966 8.61281 727 ft 15 kts 279°
2026-05-05 17:46 51.60980 8.61084 719 ft 19 kts 255°
2026-05-05 17:46 51.60918 8.60913 716 ft 17 kts 237°
2026-05-05 17:47 51.60853 8.60754 713 ft 17 kts 236°
2026-05-05 17:47 51.60788 8.60601 715 ft 16 kts 237°
2026-05-05 17:47 51.60758 8.60446 711 ft 14 kts 281°
2026-05-05 17:47 51.60773 8.60398 716 ft 0 kts 308°
2026-05-05 17:50 51.60798 8.60363 716 ft 14 kts 326°
2026-05-05 17:50 51.60908 8.60408 715 ft 19 kts 53°
2026-05-05 17:50 51.60994 8.60613 715 ft 41 kts 56°
2026-05-05 17:51 51.61309 8.61383 713 ft 120 kts 57°
2026-05-05 17:51 51.61864 8.62753 923 ft 158 kts 56°
2026-05-05 17:51 51.62450 8.64235 1742 ft 154 kts 54°
2026-05-05 17:51 51.63077 8.65639 2535 ft 157 kts 56°
2026-05-05 17:52 51.63730 8.67211 3015 ft 181 kts 56°
2026-05-05 17:52 51.64249 8.69186 3532 ft 206 kts 78°
2026-05-05 17:52 51.64521 8.71588 4105 ft 230 kts 79°
2026-05-05 17:52 51.64779 8.74265 4729 ft 253 kts 89°
2026-05-05 17:53 51.64330 8.76991 4950 ft 260 kts 123°
2026-05-05 17:53 51.62963 8.78824 5002 ft 261 kts 158°
2026-05-05 17:53 51.61165 8.79314 5008 ft 264 kts 177°
2026-05-05 17:53 51.59321 8.79219 5005 ft 265 kts 182°
2026-05-05 17:54 51.57480 8.79020 5005 ft 266 kts 182°
2026-05-05 17:54 51.55631 8.78889 5003 ft 266 kts 179°
2026-05-05 17:54 51.53785 8.78868 5001 ft 266 kts 178°
2026-05-05 17:54 51.51936 8.78938 5003 ft 266 kts 176°
2026-05-05 17:55 51.50086 8.79069 5002 ft 266 kts 175°
2026-05-05 17:55 51.48235 8.79238 5003 ft 267 kts 175°
2026-05-05 17:55 51.46389 8.79424 5002 ft 264 kts 175°
2026-05-05 17:55 51.44562 8.79617 4997 ft 262 kts 175°
2026-05-05 17:56 51.42729 8.79815 4999 ft 264 kts 175°
2026-05-05 17:56 51.40904 8.80008 4993 ft 263 kts 175°
2026-05-05 17:56 51.39080 8.80197 4997 ft 262 kts 175°
2026-05-05 17:56 51.37254 8.80386 5000 ft 264 kts 174°
2026-05-05 17:57 51.35414 8.80577 5682 ft 271 kts 175°
2026-05-05 17:57 51.33548 8.80765 6927 ft 268 kts 176°
2026-05-05 17:57 51.31670 8.80959 7976 ft 272 kts 175°
2026-05-05 17:57 51.29781 8.81402 9001 ft 276 kts 167°
2026-05-05 17:58 51.27927 8.82287 10015 ft 283 kts 160°
2026-05-05 17:58 51.26069 8.83671 10484 ft 307 kts 151°
2026-05-05 17:58 51.24243 8.85683 10924 ft 330 kts 140°
2026-05-05 17:58 51.22478 8.88140 11601 ft 342 kts 139°
2026-05-05 17:59 51.20661 8.90646 12394 ft 348 kts 140°
2026-05-05 17:59 51.18813 8.93170 12708 ft 350 kts 140°
2026-05-05 17:59 51.16958 8.95696 12974 ft 355 kts 140°
2026-05-05 17:59 51.15069 8.98258 13855 ft 356 kts 140°
2026-05-05 18:00 51.13173 9.00825 14672 ft 359 kts 140°
2026-05-05 18:00 51.11281 9.03384 15463 ft 363 kts 140°
2026-05-05 18:00 51.09348 9.06001 16249 ft 367 kts 140°
2026-05-05 18:00 51.07397 9.08638 17029 ft 370 kts 141°
2026-05-05 18:01 51.05421 9.11304 17822 ft 374 kts 141°
2026-05-05 18:01 51.03425 9.14001 18536 ft 378 kts 141°
2026-05-05 18:01 51.01410 9.16723 19230 ft 381 kts 141°
2026-05-05 18:01 50.99380 9.19461 19936 ft 384 kts 141°
2026-05-05 18:02 50.97333 9.22213 20638 ft 387 kts 141°
2026-05-05 18:02 50.95268 9.24987 21336 ft 390 kts 141°
2026-05-05 18:02 50.93187 9.27771 22006 ft 392 kts 141°
2026-05-05 18:02 50.91043 9.30465 22595 ft 395 kts 143°
2026-05-05 18:03 50.88829 9.33077 22769 ft 396 kts 145°
2026-05-05 18:03 50.86556 9.35651 22807 ft 406 kts 146°
2026-05-05 18:03 50.84236 9.38243 22802 ft 408 kts 146°
2026-05-05 18:03 50.81913 9.40837 22797 ft 409 kts 146°
2026-05-05 18:04 50.79622 9.43412 22798 ft 410 kts 146°
2026-05-05 18:04 50.77305 9.46042 22799 ft 410 kts 145°
2026-05-05 18:04 50.74994 9.48687 22799 ft 410 kts 145°
2026-05-05 18:04 50.72686 9.51343 22800 ft 410 kts 145°
2026-05-05 18:05 50.70377 9.53997 22799 ft 410 kts 145°
2026-05-05 18:05 50.68070 9.56641 22799 ft 410 kts 145°
2026-05-05 18:05 50.65759 9.59279 22801 ft 410 kts 145°
2026-05-05 18:05 50.63443 9.61911 22800 ft 410 kts 145°
2026-05-05 18:06 50.61132 9.64535 22803 ft 410 kts 145°
2026-05-05 18:06 50.59599 9.66278 22802 ft 410 kts 145°
2026-05-05 18:06 50.56506 9.69790 22803 ft 410 kts 145°
2026-05-05 18:06 50.54193 9.72415 22802 ft 410 kts 145°
2026-05-05 18:07 50.51879 9.75039 22801 ft 410 kts 145°
2026-05-05 18:07 50.49568 9.77654 22796 ft 410 kts 145°
2026-05-05 18:07 50.47248 9.80271 22799 ft 409 kts 146°
2026-05-05 18:07 50.44937 9.82871 22824 ft 409 kts 145°
2026-05-05 18:08 50.42626 9.85466 22818 ft 408 kts 145°
2026-05-05 18:08 50.40337 9.88036 22811 ft 408 kts 146°
2026-05-05 18:08 50.38041 9.90598 22558 ft 403 kts 146°
2026-05-05 18:08 50.35759 9.93129 21875 ft 399 kts 146°
2026-05-05 18:09 50.33502 9.95617 21229 ft 395 kts 146°
2026-05-05 18:09 50.31258 9.98079 20619 ft 392 kts 146°
2026-05-05 18:09 50.29030 10.00516 20033 ft 389 kts 146°
2026-05-05 18:09 50.26822 10.02936 19479 ft 387 kts 146°
2026-05-05 18:10 50.24632 10.05340 18960 ft 384 kts 146°
2026-05-05 18:10 50.22455 10.07732 18420 ft 381 kts 146°
2026-05-05 18:10 50.20295 10.10110 17876 ft 379 kts 146°
2026-05-05 18:10 50.18143 10.12470 17240 ft 377 kts 146°
2026-05-05 18:11 50.16007 10.14805 16650 ft 374 kts 146°
2026-05-05 18:11 50.13884 10.17123 16076 ft 371 kts 146°
2026-05-05 18:11 50.11780 10.19422 15502 ft 368 kts 146°
2026-05-05 18:11 50.09760 10.21783 14933 ft 366 kts 140°
2026-05-05 18:12 50.07963 10.24566 14374 ft 364 kts 132°
2026-05-05 18:12 50.06454 10.27721 13932 ft 364 kts 124°
2026-05-05 18:12 50.05245 10.31194 13793 ft 366 kts 117°
2026-05-05 18:12 50.04157 10.34777 13811 ft 366 kts 117°
2026-05-05 18:13 50.03053 10.38355 13815 ft 367 kts 117°
2026-05-05 18:13 50.01948 10.41930 13815 ft 367 kts 117°
2026-05-05 18:13 50.00842 10.45508 13814 ft 367 kts 117°
2026-05-05 18:13 49.99738 10.49081 13817 ft 367 kts 117°
2026-05-05 18:14 49.98635 10.52657 13806 ft 367 kts 117°
2026-05-05 18:14 49.97432 10.56120 13814 ft 361 kts 125°
2026-05-05 18:14 49.95943 10.59174 13786 ft 358 kts 133°
2026-05-05 18:14 49.94180 10.61844 13342 ft 351 kts 142°
2026-05-05 18:15 49.92197 10.64009 12682 ft 347 kts 152°
2026-05-05 18:15 49.90035 10.65647 11999 ft 345 kts 160°
2026-05-05 18:15 49.87776 10.66857 11369 ft 342 kts 163°
2026-05-05 18:15 49.85531 10.68031 10751 ft 339 kts 163°
2026-05-05 18:16 49.83306 10.69204 10146 ft 337 kts 163°
2026-05-05 18:16 49.81063 10.70233 9875 ft 335 kts 169°
2026-05-05 18:16 49.78810 10.70808 9805 ft 318 kts 175°
2026-05-05 18:16 49.76705 10.71161 9815 ft 289 kts 175°
2026-05-05 18:17 49.74754 10.71496 9820 ft 278 kts 175°
2026-05-05 18:17 49.72847 10.71822 9666 ft 273 kts 176°
2026-05-05 18:17 49.70975 10.72255 9250 ft 273 kts 169°
2026-05-05 18:17 49.69161 10.73134 8820 ft 274 kts 161°
2026-05-05 18:18 49.67452 10.74483 8358 ft 278 kts 152°
2026-05-05 18:18 49.65896 10.76285 7934 ft 281 kts 142°
2026-05-05 18:18 49.64549 10.78483 7520 ft 283 kts 132°
2026-05-05 18:18 49.63452 10.81014 7117 ft 285 kts 122°
2026-05-05 18:19 49.62652 10.83782 6845 ft 287 kts 112°
2026-05-05 18:19 49.62087 10.86747 6828 ft 291 kts 107°
2026-05-05 18:19 49.61724 10.89831 6828 ft 293 kts 102°
2026-05-05 18:19 49.61423 10.92944 6836 ft 293 kts 102°
2026-05-05 18:20 49.61120 10.96055 6830 ft 293 kts 102°
2026-05-05 18:20 49.60919 10.98120 6837 ft 293 kts 102°
2026-05-05 18:20 49.60516 11.02268 6549 ft 291 kts 102°
2026-05-05 18:20 49.60215 11.05355 6154 ft 290 kts 102°
2026-05-05 18:21 49.59913 11.08421 5757 ft 288 kts 102°
2026-05-05 18:21 49.59613 11.11462 5375 ft 286 kts 102°
2026-05-05 18:21 49.59315 11.14484 4998 ft 284 kts 101°
2026-05-05 18:21 49.59021 11.17455 4626 ft 282 kts 101°
2026-05-05 18:22 49.58724 11.20435 4233 ft 280 kts 101°
2026-05-05 18:22 49.58429 11.23389 3997 ft 278 kts 101°
2026-05-05 18:22 49.58133 11.26334 3977 ft 279 kts 101°
2026-05-05 18:22 49.57836 11.29296 3972 ft 279 kts 100°
2026-05-05 18:23 49.57538 11.32264 3979 ft 281 kts 101°
2026-05-05 18:23 49.57238 11.35243 3980 ft 282 kts 101°
2026-05-05 18:23 49.56936 11.38224 3969 ft 282 kts 100°
2026-05-05 18:23 49.56633 11.41201 3971 ft 281 kts 100°
2026-05-05 18:24 49.56333 11.44151 3966 ft 272 kts 100°
2026-05-05 18:24 49.56051 11.46938 3967 ft 256 kts 100°
2026-05-05 18:24 49.55778 11.49610 3971 ft 251 kts 101°
2026-05-05 18:24 49.55506 11.52260 3966 ft 250 kts 101°
2026-05-05 18:25 49.55235 11.54916 3960 ft 250 kts 101°
2026-05-05 18:25 49.55148 11.55772 3963 ft 250 kts 101°
2026-05-05 18:25 49.54155 11.59810 3963 ft 243 kts 139°
2026-05-05 18:25 49.52744 11.61087 3962 ft 234 kts 171°
2026-05-05 18:26 49.51171 11.60990 3964 ft 225 kts 204°
2026-05-05 18:26 49.49948 11.59606 3965 ft 219 kts 236°
2026-05-05 18:26 49.49334 11.57480 3967 ft 218 kts 253°
2026-05-05 18:26 49.48891 11.55239 3966 ft 219 kts 254°
2026-05-05 18:27 49.48474 11.52983 3962 ft 219 kts 255°
2026-05-05 18:27 49.48060 11.50724 3990 ft 219 kts 255°
2026-05-05 18:27 49.47650 11.48466 3983 ft 219 kts 255°
2026-05-05 18:27 49.47244 11.46212 3985 ft 219 kts 254°
2026-05-05 18:28 49.46585 11.42463 3976 ft 219 kts 257°
2026-05-05 18:28 49.46598 11.40122 3990 ft 221 kts 277°
2026-05-05 18:28 49.46855 11.37794 3985 ft 221 kts 277°
2026-05-05 18:29 49.47103 11.35470 3989 ft 221 kts 277°
2026-05-05 18:29 49.47341 11.33138 3975 ft 221 kts 277°
2026-05-05 18:29 49.47576 11.30811 3772 ft 218 kts 277°
2026-05-05 18:29 49.47804 11.28552 3506 ft 209 kts 277°
2026-05-05 18:30 49.48019 11.26413 3242 ft 200 kts 278°
2026-05-05 18:30 49.48225 11.24352 3044 ft 189 kts 278°
2026-05-05 18:30 49.48420 11.22405 2775 ft 181 kts 278°
2026-05-05 18:30 49.48608 11.20524 2529 ft 172 kts 278°
2026-05-05 18:31 49.48777 11.18829 2319 ft 148 kts 279°
2026-05-05 18:31 49.48923 11.17357 2128 ft 133 kts 279°
2026-05-05 18:31 49.49058 11.15998 1932 ft 126 kts 278°
2026-05-05 18:31 49.49189 11.14678 1764 ft 124 kts 279°
2026-05-05 18:32 49.49318 11.13364 1592 ft 124 kts 279°
2026-05-05 18:32 49.49450 11.12052 1417 ft 125 kts 278°
2026-05-05 18:32 49.49577 11.10739 1218 ft 123 kts 278°
2026-05-05 18:32 49.49708 11.09441 1092 ft 123 kts 279°
2026-05-05 18:33 49.49826 11.08208 1035 ft 104 kts 281°
2026-05-05 18:33 49.49868 11.07685 1034 ft 25 kts 248°
2026-05-05 18:33 49.49800 11.07672 1034 ft 11 kts 156°
2026-05-05 18:33 49.49761 11.07700 1034 ft 0 kts 154°
2026-05-05 18:35 49.49748 11.07710 1034 ft 5 kts 154°
2026-05-05 18:35 49.49699 11.07748 1032 ft 10 kts 153°
2026-05-05 18:35 49.49637 11.07766 1031 ft 2 kts 184°
2026-05-05 18:36 49.49618 11.07759 1030 ft 1 kts 196°
2026-05-05 18:36 49.49582 11.07740 1029 ft 12 kts 194°
2026-05-05 18:36 49.49526 11.07724 1025 ft 2 kts 188°
2026-05-05 18:36 49.49525 11.07724 1025 ft 0 kts 189°
2026-05-05 18:38 49.49526 11.07724 1027 ft 0 kts 189°